Showing default

IRIDIUM 137, 43076

Orbit data source: Space-Track

IRIDIUM 137, 43076 is a payload satellite owned by Iridium (US) in LEO that was launched on Sat, 23 Dec 2017 UTC via an FALCON 9 launch vehicle from the Air Force Western Test Range (AFWTR). Payload-class satellites include a variety of spacecraft equipped with specific instruments for various scientific and technological missions. These include communications satellites like Starlink; space stations such as the ISS; scientific satellites like the Hubble; Earth observation satellites from companies like Planet Labs, Umbra, and HawkEye 360; GPS; miniature CubeSats for education and research; and military/defense satellites.

Loading next visibility...
Identifier
43076, 2017-083G
Orbit
LEO
Country
Flag of USUS
Related business
Manufacturer
OATK SSG Gilbert
Mission
Operational Commercial Communications
Bus & Motor
ELITEBUS, Unknown motor
Mass
860 kg wet, 700 kg dry
Launch date (UTC)
2017-12-23 (8 years ago)
Launch vehicle
FALCON 9
Launch site
Air Force Western Test Range (AFWTR)
Object type
Payload
Rocket body
Debris
Shape & HBR
Trap Box + 2 Pan, 4.8 m
Radar Cross Section
10.154 m², Large (>1 m²)

Expand to show TLE details & history
Last TLE update: 12 hours ago

TLE from 12 hours ago
0 IRIDIUM 137
1 43076U 17083G   25293.62355268  .00000106  00000-0  30887-4 0  9994
2 43076  86.3960  62.2782 0001546 105.0873 255.0494 14.34218630409836
Epoch: 2025-10-20T14:57Z
TLE epoch observation values (Epoch: 2025-10-20T14:57:54.951Z)
Latitude
-0.00002°
Longitude
168.47603°
Altitude
781.001 km
Speed
7.463 km/s
True Right ascension
04h 09m 06s
True Declination
0° 00' 00"
Sunlit
Object was in full shadow at epoch
Visualization orbit readout
Latitude
Unknown
Longitude
Unknown
Altitude
Unknown
Speed
Unknown
Apparent Right ascension
Unknown
Apparent Declination
Unknown
Sunlit
N/A
Visualization observer readout
Local Sidereal Time
22:01:14
Azimuth
Unknown
Elevation
Unknown
Doppler factor
Unknown
Orbital elements
Apogee altitude
775.735 km
Perigee altitude
773.523 km
Semi-major axis
7,152.766 km
Eccentricity
0.00015
Inclination
86.396°
RAAN
62.2782°
Arg. of periapsis
105.0873°
True anomaly
255.03228°
Mean anomaly
255.0494°
Eccentric anomaly
255.04084°
Mean motion
3.58783 °/min
Orbital period
100.34 mins
BSTAR
0.000030887
Loading maneuver chart data...
Computing Atmospheric mass density...
Loading historical data...
Loading historical data...
Loading historical data...
Loading historical data...
Loading historical data...
Loading historical data...
Loading historical data...

Documentation

Showing up to 5 results
|